QPF
0.03 0.03 0.03 0.02 0.02 0.03 0.03 0.02 0.03 0.03 0.04 0.04 0.05 0.05 0.05 0.06 0.07 0.06 0.05 0.05 0.05 0.05 0.05 0.05 0.04 0.03 0.04 0.03 0.03 0.05 0.07 0.06 0.05 0.03 0.04 0.04 0.05 0.05 0.06 0.05 0.05 0.04 0.03
0.02 0.03 0.02 0.02 0.02 0.03 0.03 0.03 0.06 0.07 0.07 0.06 0.05 0.05 0.07 0.06 0.07 0.07 0.07 0.08 0.07 0.07 0.06 0.05 0.05 0.06 0.06 0.06 0.08 0.08 0.07 0.07 0.06 0.05 0.04 0.04 0.03 0.03 0.03 0.03 0.03 0.02 0.02
0.01 0.02 0.02 0.02 0.03 0.03 0.03 0.03 0.03 0.03 0.04 0.03 0.04 0.06 0.06 0.05 0.05 0.05 0.06 0.07 0.06 0.05 0.05 0.05 0.06 0.08 0.09 0.10 0.07 0.06 0.05 0.05 0.06 0.05 0.05 0.05 0.04 0.02 0.02 0.02 0.02 0.02 0.02
0.01 0.02 0.02 0.02 0.03 0.02 0.02 0.02 0.01 0.01 0.02 0.03 0.04 0.05 0.05 0.05 0.04 0.03 0.04 0.05 0.05 0.05 0.06 0.06 0.05 0.06 0.07 0.07 0.04 0.03 0.03 0.03 0.05 0.06 0.05 0.06 0.06 0.04 0.03 0.02 0.02 0.02 0.02
0.02 0.02 0.03 0.03 0.03 0.03 0.03 0.03 0.02 0.02 0.04 0.04 0.04 0.03 0.04 0.04 0.04 0.05 0.04 0.04 0.04 0.04 0.04 0.04 0.04 0.05 0.05 0.05 0.04 0.03 0.03 0.02 0.03 0.04 0.04 0.05 0.06 0.05 0.04 0.03 0.03 0.02 0.03
0.01 0.02 0.02 0.02 0.03 0.02 0.02 0.02 0.02 0.03 0.04 0.03 0.03 0.03 0.04 0.04 0.04 0.05 0.06 0.05 0.04 0.04 0.03 0.03 0.03 0.04 0.04 0.06 0.07 0.07 0.06 0.05 0.04 0.04 0.05 0.05 0.06 0.07 0.05 0.06 0.05 0.04 0.02
0.01 0.02 0.02 0.02 0.03 0.03 0.02 0.02 0.02 0.02 0.04 0.04 0.04 0.04 0.04 0.04 0.04 0.06 0.08 0.06 0.05 0.05 0.04 0.03 0.03 0.03 0.05 0.08 0.10 0.12 0.12 0.13 0.12 0.11 0.09 0.07 0.06 0.05 0.05 0.05 0.05 0.04 0.03
0.02 0.03 0.03 0.03 0.03 0.03 0.03 0.03 0.03 0.04 0.07 0.08 0.07 0.06 0.05 0.04 0.04 0.05 0.06 0.05 0.05 0.05 0.03 0.01 0.01 0.02 0.05 0.09 0.09 0.09 0.09 0.10 0.12 0.11 0.09 0.08 0.06 0.05 0.04 0.05 0.05 0.04 0.03
0.04 0.05 0.07 0.07 0.04 0.03 0.03 0.04 0.05 0.07 0.09 0.08 0.07 0.06 0.06 0.05 0.04 0.04 0.04 0.04 0.04 0.03 0.02 0.02 0.01 0.01 0.01 0.04 0.05 0.04 0.03 0.04 0.06 0.08 0.08 0.06 0.05 0.05 0.06 0.07 0.06 0.05 0.04
0.03 0.03 0.04 0.04 0.04 0.03 0.04 0.05 0.08 0.10 0.09 0.07 0.06 0.05 0.05 0.05 0.05 0.04 0.04 0.03 0.02 0.02 0.03 0.02 0.02 0.02 0.02 0.03 0.03 0.02 0.02 0.03 0.03 0.04 0.05 0.05 0.05 0.05 0.08 0.07 0.07 0.07 0.06
0.02 0.02 0.03 0.03 0.03 0.03 0.05 0.07 0.08 0.09 0.08 0.06 0.05 0.04 0.05 0.04 0.05 0.04 0.04 0.02 0.02 0.02 0.02 0.02 0.02 0.02 0.01 0.02 0.03 0.04 0.06 0.04 0.03 0.02 0.02 0.03 0.03 0.03 0.04 0.06 0.06 0.08 0.08
0.04 0.05 0.05 0.06 0.06 0.06 0.07 0.07 0.08 0.08 0.08 0.08 0.08 0.06 0.06 0.05 0.04 0.03 0.03 0.03 0.03 0.03 0.01 0.01 0.01 0.01 0.01 0.01 0.01 0.03 0.06 0.07 0.04 0.03 0.03 0.03 0.03 0.03 0.04 0.06 0.05 0.06 0.08
0.05 0.05 0.06 0.07 0.08 0.09 0.10 0.12 0.12 0.12 0.11 0.10 0.10 0.08 0.06 0.06 0.04 0.03 0.03 0.03 0.03 0.03 0.02 0.01 0.01 0.01 0.01 0.01 0.01 0.02 0.04 0.06 0.06 0.04 0.03 0.03 0.04 0.04 0.03 0.03 0.03 0.03 0.04
0.05 0.06 0.06 0.07 0.07 0.07 0.10 0.15 0.19 0.16 0.13 0.12 0.11 0.09 0.07 0.05 0.03 0.02 0.02 0.02 0.03 0.04 0.03 0.02 0.02 0.02 0.01 0.01 0.01 0.01 0.02 0.02 0.03 0.03 0.03 0.02 0.02 0.02 0.02 0.02 0.02 0.02 0.02
0.05 0.07 0.06 0.06 0.06 0.07 0.08 0.11 0.15 0.13 0.12 0.12 0.10 0.08 0.06 0.05 0.04 0.04 0.03 0.02 0.02 0.03 0.03 0.02 0.02 0.02 0.01 0.01 0.01 0.01 0.01 0.01 0.01 0.02 0.02 0.02 0.01 0.01 0.01 0.01 0.02 0.02 0.02
0.06 0.07 0.07 0.08 0.09 0.09 0.09 0.09 0.10 0.09 0.07 0.07 0.08 0.09 0.08 0.05 0.05 0.04 0.03 0.02 0.02 0.03 0.03 0.02 0.02 0.01 0.01 0.01 0.01 0.01 0.01 0.01 0.01 0.01 0.01 0.01 0.02 0.02 0.01 0.01 0.02 0.02 0.02
0.05 0.05 0.04 0.06 0.09 0.10 0.10 0.09 0.10 0.11 0.09 0.07 0.06 0.05 0.05 0.04 0.04 0.03 0.02 0.02 0.03 0.03 0.03 0.03 0.03 0.03 0.02 0.02 0.02 0.02 0.01 0.01 0.01 0.01 0.01 0.01 0.01 0.01 0.01 0.01 0.01 0.01 0.01
0.03 0.02 0.02 0.02 0.03 0.04 0.04 0.03 0.04 0.07 0.08 0.07 0.05 0.03 0.03 0.03 0.03 0.03 0.03 0.03 0.03 0.03 0.03 0.04 0.05 0.07 0.05 0.03 0.03 0.02 0.01 0.01 0.01 0.01 0.01 0.01 0.00 0.01 0.01 0.01 0.01 0.01 0.01
0.03 0.02 0.01 0.01 0.01 0.01 0.01 0.02 0.02 0.02 0.04 0.03 0.03 0.03 0.03 0.03 0.03 0.03 0.04 0.04 0.03 0.03 0.03 0.03 0.05 0.08 0.10 0.07 0.04 0.02 0.02 0.01 0.01 0.00 0.00 0.00 0.01 0.01 0.01 0.01 0.01 0.01 0.02
0.02 0.02 0.02 0.02 0.01 0.01 0.01 0.01 0.02 0.03 0.03 0.05 0.05 0.04 0.03 0.03 0.03 0.04 0.05 0.07 0.06 0.04 0.03 0.02 0.03 0.05 0.04 0.04 0.04 0.03 0.02 0.01 0.01 0.01 0.01 0.00 0.00 0.01 0.01 0.01 0.01 0.02 0.02
0.03 0.02 0.02 0.02 0.02 0.01 0.01 0.02 0.02 0.04 0.04 0.05 0.07 0.08 0.09 0.07 0.05 0.05 0.04 0.05 0.07 0.08 0.04 0.03 0.02 0.02 0.02 0.02 0.02 0.02 0.01 0.01 0.01 0.01 0.00 0.00 0.00 0.01 0.01 0.02 0.02 0.02 0.02
0.04 0.03 0.03 0.03 0.03 0.02 0.02 0.02 0.02 0.03 0.04 0.06 0.07 0.08 0.09 0.08 0.06 0.04 0.03 0.03 0.03 0.03 0.03 0.02 0.02 0.02 0.03 0.03 0.03 0.03 0.02 0.02 0.01 0.01 0.01 0.01 0.01 0.02 0.02 0.03 0.02 0.02 0.03
0.06 0.06 0.04 0.03 0.03 0.03 0.04 0.04 0.03 0.04 0.04 0.05 0.05 0.07 0.07 0.06 0.04 0.03 0.02 0.02 0.02 0.02 0.02 0.02 0.02 0.03 0.03 0.03 0.03 0.03 0.03 0.03 0.03 0.03 0.02 0.02 0.02 0.03 0.03 0.03 0.03 0.03 0.03
0.08 0.10 0.09 0.07 0.06 0.05 0.04 0.05 0.06 0.06 0.05 0.05 0.06 0.06 0.06 0.05 0.04 0.03 0.02 0.02 0.03 0.03 0.03 0.02 0.02 0.02 0.02 0.02 0.03 0.02 0.03 0.03 0.03 0.02 0.02 0.02 0.02 0.02 0.02 0.02 0.02 0.02 0.02
0.07 0.10 0.12 0.09 0.06 0.05 0.05 0.04 0.04 0.05 0.05 0.05 0.04 0.04 0.03 0.03 0.04 0.04 0.03 0.03 0.03 0.02 0.02 0.01 0.01 0.01 0.01 0.01 0.01 0.02 0.02 0.02 0.02 0.01 0.01 0.01 0.01 0.01 0.01 0.01 0.02 0.02 0.02
0.03 0.05 0.11 0.09 0.07 0.07 0.06 0.05 0.05 0.05 0.05 0.06 0.05 0.03 0.03 0.03 0.03 0.03 0.03 0.02 0.02 0.02 0.01 0.01 0.01 0.01 0.01 0.01 0.01 0.01 0.02 0.01 0.01 0.01 0.01 0.01 0.02 0.02 0.02 0.03 0.03 0.03 0.04
MSLP
1008.81 1009.19 1009.62 1010.04 1010.38 1010.63 1010.76 1010.78 1010.72 1010.62 1010.51 1010.42 1010.37 1010.36 1010.39 1010.45 1010.55 1010.67 1010.82 1011.02 1011.26 1011.55 1011.87 1012.20 1012.53 1012.82 1013.05 1013.20 1013.26 1013.24 1013.16 1013.03 1012.87 1012.70 1012.53 1012.38 1012.24 1012.11 1011.98 1011.85 1011.72 1011.61 1011.51
1009.28 1009.61 1010.00 1010.40 1010.75 1011.01 1011.17 1011.22 1011.19 1011.11 1011.01 1010.92 1010.85 1010.83 1010.84 1010.90 1011.01 1011.15 1011.33 1011.56 1011.82 1012.11 1012.41 1012.71 1012.98 1013.20 1013.36 1013.44 1013.44 1013.39 1013.29 1013.17 1013.05 1012.94 1012.85 1012.77 1012.71 1012.64 1012.55 1012.44 1012.32 1012.17 1012.02
1010.00 1010.30 1010.66 1011.04 1011.37 1011.63 1011.80 1011.87 1011.87 1011.80 1011.72 1011.63 1011.57 1011.55 1011.57 1011.64 1011.75 1011.91 1012.11 1012.35 1012.62 1012.89 1013.16 1013.41 1013.62 1013.76 1013.83 1013.83 1013.77 1013.67 1013.55 1013.43 1013.33 1013.27 1013.24 1013.23 1013.23 1013.22 1013.19 1013.11 1012.99 1012.83 1012.64
1010.87 1011.17 1011.51 1011.86 1012.18 1012.43 1012.59 1012.67 1012.68 1012.64 1012.57 1012.51 1012.47 1012.46 1012.50 1012.58 1012.70 1012.87 1013.07 1013.31 1013.56 1013.80 1014.03 1014.22 1014.35 1014.42 1014.41 1014.34 1014.21 1014.06 1013.91 1013.79 1013.70 1013.67 1013.68 1013.72 1013.78 1013.82 1013.83 1013.78 1013.68 1013.51 1013.30
1011.78 1012.09 1012.43 1012.77 1013.06 1013.29 1013.45 1013.53 1013.55 1013.53 1013.50 1013.46 1013.45 1013.47 1013.53 1013.62 1013.75 1013.92 1014.11 1014.32 1014.53 1014.73 1014.90 1015.03 1015.09 1015.09 1015.01 1014.88 1014.71 1014.52 1014.35 1014.22 1014.14 1014.12 1014.15 1014.22 1014.31 1014.39 1014.42 1014.40 1014.31 1014.16 1013.94
1012.61 1012.96 1013.32 1013.65 1013.92 1014.13 1014.27 1014.36 1014.39 1014.40 1014.41 1014.41 1014.44 1014.49 1014.57 1014.68 1014.81 1014.95 1015.11 1015.28 1015.44 1015.58 1015.69 1015.75 1015.76 1015.70 1015.59 1015.42 1015.22 1015.02 1014.83 1014.69 1014.61 1014.59 1014.63 1014.71 1014.81 1014.90 1014.94 1014.94 1014.86 1014.72 1014.50
1013.31 1013.71 1014.09 1014.42 1014.68 1014.88 1015.01 1015.10 1015.15 1015.19 1015.24 1015.29 1015.36 1015.45 1015.55 1015.66 1015.77 1015.89 1016.01 1016.12 1016.21 1016.29 1016.34 1016.36 1016.32 1016.23 1016.10 1015.92 1015.72 1015.52 1015.34 1015.20 1015.11 1015.09 1015.11 1015.18 1015.26 1015.34 1015.38 1015.37 1015.30 1015.16 1014.96
1013.85 1014.31 1014.72 1015.05 1015.31 1015.50 1015.63 1015.72 1015.80 1015.87 1015.96 1016.06 1016.17 1016.28 1016.40 1016.51 1016.60 1016.68 1016.75 1016.80 1016.83 1016.85 1016.85 1016.82 1016.76 1016.67 1016.53 1016.37 1016.19 1016.01 1015.85 1015.72 1015.63 1015.58 1015.58 1015.62 1015.67 1015.71 1015.72 1015.69 1015.62 1015.48 1015.30
1014.26 1014.77 1015.21 1015.55 1015.81 1016.00 1016.13 1016.23 1016.33 1016.44 1016.56 1016.70 1016.84 1016.98 1017.11 1017.21 1017.28 1017.32 1017.33 1017.33 1017.31 1017.28 1017.24 1017.19 1017.13 1017.04 1016.93 1016.80 1016.65 1016.51 1016.36 1016.24 1016.14 1016.07 1016.04 1016.02 1016.02 1016.01 1015.98 1015.92 1015.82 1015.68 1015.50
1014.58 1015.12 1015.58 1015.94 1016.21 1016.40 1016.54 1016.66 1016.78 1016.92 1017.07 1017.24 1017.40 1017.56 1017.69 1017.78 1017.83 1017.83 1017.81 1017.76 1017.70 1017.63 1017.57 1017.51 1017.45 1017.39 1017.31 1017.22 1017.11 1016.99 1016.87 1016.75 1016.64 1016.54 1016.45 1016.38 1016.31 1016.24 1016.15 1016.05 1015.92 1015.77 1015.59
1014.83 1015.40 1015.88 1016.25 1016.53 1016.74 1016.90 1017.03 1017.18 1017.33 1017.51 1017.69 1017.88 1018.04 1018.16 1018.24 1018.27 1018.25 1018.20 1018.13 1018.04 1017.96 1017.89 1017.84 1017.79 1017.75 1017.70 1017.64 1017.56 1017.46 1017.34 1017.21 1017.08 1016.94 1016.80 1016.66 1016.52 1016.38 1016.23 1016.08 1015.92 1015.74 1015.55
1015.04 1015.63 1016.12 1016.51 1016.81 1017.03 1017.21 1017.37 1017.53 1017.71 1017.90 1018.09 1018.28 1018.44 1018.56 1018.63 1018.65 1018.62 1018.56 1018.47 1018.38 1018.30 1018.24 1018.19 1018.15 1018.13 1018.09 1018.05 1017.97 1017.88 1017.75 1017.59 1017.42 1017.23 1017.03 1016.82 1016.62 1016.41 1016.21 1016.00 1015.80 1015.60 1015.39
1015.20 1015.80 1016.30 1016.71 1017.03 1017.28 1017.49 1017.67 1017.85 1018.04 1018.24 1018.44 1018.62 1018.78 1018.90 1018.97 1018.98 1018.96 1018.90 1018.82 1018.74 1018.66 1018.60 1018.56 1018.53 1018.50 1018.46 1018.40 1018.31 1018.19 1018.03 1017.83 1017.61 1017.36 1017.10 1016.83 1016.57 1016.31 1016.05 1015.80 1015.57 1015.34 1015.12
1015.28 1015.88 1016.40 1016.83 1017.17 1017.45 1017.69 1017.90 1018.11 1018.31 1018.52 1018.71 1018.90 1019.05 1019.17 1019.24 1019.26 1019.25 1019.20 1019.14 1019.07 1019.01 1018.96 1018.91 1018.87 1018.82 1018.75 1018.66 1018.53 1018.35 1018.14 1017.89 1017.61 1017.30 1016.99 1016.67 1016.36 1016.05 1015.76 1015.48 1015.22 1014.97 1014.74
1015.25 1015.85 1016.37 1016.82 1017.20 1017.52 1017.79 1018.04 1018.27 1018.49 1018.70 1018.90 1019.08 1019.23 1019.35 1019.43 1019.47 1019.47 1019.45 1019.41 1019.35 1019.30 1019.25 1019.18 1019.12 1019.03 1018.91 1018.76 1018.57 1018.33 1018.05 1017.74 1017.40 1017.05 1016.69 1016.33 1015.99 1015.66 1015.34 1015.05 1014.78 1014.52 1014.27
1015.07 1015.66 1016.20 1016.68 1017.09 1017.45 1017.76 1018.04 1018.30 1018.53 1018.75 1018.96 1019.14 1019.30 1019.42 1019.51 1019.56 1019.59 1019.58 1019.56 1019.52 1019.47 1019.40 1019.31 1019.20 1019.06 1018.89 1018.67 1018.40 1018.10 1017.76 1017.39 1017.00 1016.61 1016.22 1015.84 1015.48 1015.15 1014.83 1014.54 1014.26 1014.00 1013.74
1014.75 1015.34 1015.89 1016.39 1016.83 1017.23 1017.58 1017.90 1018.19 1018.45 1018.68 1018.90 1019.08 1019.24 1019.37 1019.47 1019.54 1019.57 1019.59 1019.57 1019.53 1019.47 1019.38 1019.26 1019.11 1018.91 1018.67 1018.39 1018.06 1017.70 1017.30 1016.89 1016.47 1016.06 1015.65 1015.27 1014.92 1014.59 1014.28 1013.99 1013.72 1013.46 1013.20
1014.33 1014.91 1015.47 1015.99 1016.46 1016.90 1017.29 1017.64 1017.96 1018.24 1018.49 1018.71 1018.90 1019.07 1019.20 1019.30 1019.38 1019.42 1019.44 1019.42 1019.37 1019.30 1019.18 1019.02 1018.83 1018.58 1018.29 1017.96 1017.59 1017.19 1016.76 1016.33 1015.90 1015.48 1015.08 1014.71 1014.36 1014.05 1013.75 1013.47 1013.21 1012.94 1012.68
1013.86 1014.44 1015.00 1015.53 1016.04 1016.50 1016.93 1017.31 1017.65 1017.95 1018.21 1018.44 1018.64 1018.80 1018.93 1019.03 1019.10 1019.14 1019.14 1019.12 1019.06 1018.95 1018.81 1018.63 1018.40 1018.13 1017.81 1017.46 1017.07 1016.65 1016.23 1015.80 1015.38 1014.97 1014.59 1014.24 1013.91 1013.60 1013.32 1013.04 1012.78 1012.51 1012.23
1013.41 1013.98 1014.54 1015.09 1015.61 1016.10 1016.55 1016.95 1017.31 1017.62 1017.89 1018.12 1018.31 1018.47 1018.59 1018.67 1018.73 1018.75 1018.74 1018.70 1018.62 1018.50 1018.34 1018.14 1017.90 1017.63 1017.31 1016.96 1016.59 1016.20 1015.80 1015.40 1015.01 1014.63 1014.27 1013.94 1013.62 1013.32 1013.03 1012.75 1012.47 1012.19 1011.90
1013.04 1013.60 1014.17 1014.72 1015.25 1015.75 1016.21 1016.62 1016.98 1017.30 1017.56 1017.78 1017.96 1018.10 1018.20 1018.27 1018.30 1018.30 1018.27 1018.21 1018.12 1017.99 1017.83 1017.64 1017.41 1017.16 1016.88 1016.57 1016.25 1015.91 1015.57 1015.22 1014.87 1014.52 1014.18 1013.85 1013.54 1013.23 1012.92 1012.62 1012.32 1012.01 1011.70
1012.77 1013.33 1013.90 1014.45 1014.98 1015.48 1015.93 1016.34 1016.69 1016.99 1017.24 1017.44 1017.60 1017.71 1017.79 1017.84 1017.85 1017.83 1017.78 1017.71 1017.61 1017.49 1017.35 1017.18 1017.00 1016.80 1016.59 1016.35 1016.11 1015.84 1015.57 1015.27 1014.97 1014.66 1014.34 1014.01 1013.67 1013.34 1013.00 1012.66 1012.32 1011.98 1011.64
1012.62 1013.18 1013.74 1014.28 1014.80 1015.28 1015.71 1016.10 1016.42 1016.70 1016.92 1017.09 1017.22 1017.31 1017.37 1017.39 1017.39 1017.36 1017.30 1017.23 1017.15 1017.05 1016.95 1016.84 1016.73 1016.61 1016.48 1016.34 1016.19 1016.01 1015.81 1015.58 1015.32 1015.03 1014.72 1014.37 1014.01 1013.63 1013.24 1012.85 1012.47 1012.09 1011.72
1012.54 1013.10 1013.65 1014.18 1014.67 1015.12 1015.52 1015.86 1016.15 1016.39 1016.58 1016.72 1016.82 1016.89 1016.93 1016.94 1016.93 1016.90 1016.86 1016.81 1016.76 1016.71 1016.67 1016.64 1016.61 1016.59 1016.56 1016.52 1016.47 1016.38 1016.26 1016.09 1015.86 1015.59 1015.26 1014.88 1014.48 1014.05 1013.60 1013.16 1012.72 1012.30 1011.89
1012.51 1013.06 1013.59 1014.09 1014.55 1014.95 1015.30 1015.60 1015.84 1016.04 1016.19 1016.31 1016.39 1016.44 1016.48 1016.49 1016.49 1016.48 1016.47 1016.46 1016.47 1016.48 1016.52 1016.57 1016.64 1016.72 1016.80 1016.86 1016.90 1016.90 1016.84 1016.71 1016.51 1016.23 1015.88 1015.47 1015.01 1014.52 1014.01 1013.51 1013.02 1012.56 1012.13
1012.48 1013.01 1013.51 1013.97 1014.37 1014.73 1015.02 1015.27 1015.47 1015.63 1015.75 1015.84 1015.92 1015.97 1016.02 1016.05 1016.08 1016.11 1016.15 1016.20 1016.27 1016.36 1016.47 1016.62 1016.78 1016.96 1017.13 1017.29 1017.40 1017.46 1017.45 1017.35 1017.16 1016.87 1016.49 1016.04 1015.53 1014.98 1014.41 1013.86 1013.32 1012.83 1012.37
Thickness
5795 5793 5790 5787 5785 5783 5780 5778 5776 5774 5772 5769 5767 5764 5761 5759 5756 5752 5749 5746 5743 5740 5738 5736 5734 5733 5731 5729 5728 5725 5722 5718 5712 5714 5716 5717 5716 5715 5714 5713 5712 5711 5710
5795 5792 5788 5786 5783 5780 5778 5777 5775 5773 5771 5768 5766 5762 5759 5756 5753 5749 5746 5744 5740 5737 5734 5732 5730 5729 5727 5725 5722 5720 5718 5715 5711 5708 5709 5710 5711 5711 5710 5708 5707 5707 5706
5794 5789 5786 5783 5780 5778 5777 5775 5773 5771 5768 5766 5762 5759 5756 5753 5750 5747 5745 5741 5738 5735 5731 5728 5726 5724 5721 5720 5718 5716 5714 5713 5709 5705 5704 5704 5704 5704 5703 5702 5702 5702 5702
5792 5787 5783 5781 5779 5777 5775 5773 5770 5768 5765 5762 5759 5756 5753 5750 5746 5744 5741 5738 5735 5732 5730 5727 5724 5721 5719 5717 5715 5713 5710 5707 5704 5701 5699 5698 5697 5698 5696 5694 5693 5694 5695
5788 5784 5781 5780 5777 5774 5772 5769 5767 5764 5761 5758 5755 5752 5750 5746 5743 5740 5737 5734 5731 5728 5726 5724 5722 5719 5718 5715 5713 5709 5706 5703 5699 5696 5694 5692 5691 5690 5689 5689 5688 5688 5689
5784 5781 5780 5777 5774 5771 5768 5765 5762 5759 5757 5753 5750 5747 5744 5742 5740 5737 5734 5730 5727 5724 5721 5719 5718 5716 5714 5712 5710 5708 5705 5700 5696 5693 5690 5688 5688 5687 5686 5685 5682 5681 5680
5781 5779 5776 5773 5770 5767 5765 5761 5757 5754 5751 5748 5745 5742 5740 5738 5736 5733 5730 5726 5723 5720 5717 5715 5714 5713 5710 5707 5705 5703 5701 5699 5697 5693 5688 5686 5684 5684 5682 5680 5678 5676 5676
5776 5773 5771 5768 5765 5763 5759 5756 5753 5750 5746 5743 5740 5737 5735 5733 5731 5728 5726 5722 5718 5716 5714 5711 5708 5706 5704 5702 5699 5697 5695 5694 5692 5689 5686 5685 5683 5682 5679 5677 5674 5673 5673
5770 5768 5766 5763 5760 5757 5754 5751 5748 5744 5741 5738 5735 5732 5729 5727 5725 5722 5719 5716 5712 5710 5708 5706 5704 5701 5699 5697 5693 5690 5688 5687 5687 5685 5683 5681 5679 5678 5675 5671 5668 5665 5663
5764 5764 5762 5759 5755 5752 5749 5746 5743 5740 5736 5732 5728 5726 5723 5720 5718 5715 5712 5709 5705 5703 5701 5700 5698 5696 5694 5691 5687 5684 5681 5680 5679 5678 5676 5675 5673 5672 5670 5667 5663 5658 5656
5759 5757 5755 5752 5750 5747 5744 5741 5737 5733 5729 5725 5721 5719 5716 5714 5712 5709 5705 5702 5699 5696 5693 5692 5691 5690 5688 5685 5682 5679 5677 5676 5673 5671 5669 5668 5666 5665 5663 5662 5659 5656 5651
5751 5748 5746 5744 5743 5740 5735 5733 5730 5726 5721 5716 5712 5709 5707 5705 5704 5702 5698 5696 5693 5689 5687 5686 5685 5684 5682 5679 5676 5674 5672 5670 5666 5663 5661 5659 5658 5657 5656 5655 5654 5652 5650
5741 5739 5737 5735 5733 5731 5727 5723 5720 5717 5712 5708 5703 5700 5698 5697 5695 5694 5691 5688 5686 5682 5681 5681 5679 5677 5674 5671 5669 5667 5664 5661 5657 5654 5652 5652 5651 5650 5650 5648 5647 5645 5644
5734 5731 5729 5725 5722 5720 5718 5715 5711 5708 5704 5700 5696 5693 5690 5689 5688 5686 5683 5680 5678 5675 5673 5672 5670 5668 5665 5663 5661 5658 5655 5652 5649 5647 5645 5644 5643 5642 5640 5639 5637 5635 5633
5726 5723 5720 5717 5713 5710 5707 5705 5703 5701 5698 5694 5691 5688 5684 5682 5681 5679 5675 5672 5670 5668 5664 5661 5659 5656 5654 5653 5651 5650 5647 5643 5641 5639 5637 5635 5633 5632 5630 5629 5626 5624 5621
5718 5715 5712 5708 5704 5701 5697 5694 5693 5691 5690 5687 5685 5681 5679 5677 5674 5672 5669 5666 5663 5660 5655 5651 5649 5647 5646 5644 5642 5640 5638 5635 5633 5631 5628 5626 5623 5621 5619 5617 5615 5612 5610
5710 5707 5703 5700 5696 5692 5689 5685 5681 5680 5679 5677 5675 5673 5670 5668 5665 5663 5660 5657 5654 5651 5646 5644 5642 5640 5638 5637 5635 5632 5629 5627 5625 5622 5619 5616 5614 5612 5609 5606 5604 5601 5599
5702 5699 5696 5693 5689 5685 5681 5677 5674 5671 5667 5665 5665 5664 5662 5659 5656 5654 5650 5647 5643 5640 5638 5636 5634 5633 5631 5629 5626 5624 5621 5619 5616 5612 5610 5607 5604 5602 5599 5596 5593 5591 5589
5692 5689 5687 5684 5681 5677 5673 5669 5666 5662 5659 5656 5654 5653 5651 5649 5647 5643 5640 5638 5636 5633 5630 5628 5626 5625 5623 5620 5618 5615 5612 5609 5606 5603 5600 5597 5594 5591 5588 5586 5583 5581 5578
5684 5682 5678 5674 5671 5667 5664 5660 5657 5653 5650 5647 5645 5643 5641 5638 5635 5633 5631 5630 5628 5625 5623 5620 5618 5617 5614 5612 5609 5606 5602 5599 5595 5592 5589 5587 5584 5582 5579 5576 5573 5570 5568
5675 5672 5670 5665 5662 5659 5656 5652 5649 5645 5642 5640 5638 5637 5634 5631 5628 5626 5623 5621 5619 5617 5615 5613 5610 5608 5605 5603 5600 5596 5593 5589 5585 5582 5579 5577 5574 5571 5569 5566 5563 5560 5558
5666 5663 5659 5656 5653 5650 5647 5645 5642 5638 5635 5633 5631 5629 5626 5624 5621 5619 5617 5615 5613 5611 5609 5606 5603 5600 5598 5595 5591 5587 5582 5579 5576 5572 5570 5567 5564 5561 5558 5556 5553 5550 5548
5657 5655 5651 5648 5645 5643 5639 5637 5634 5631 5628 5625 5623 5620 5617 5615 5613 5611 5610 5608 5605 5603 5600 5597 5594 5591 5589 5587 5583 5579 5574 5570 5566 5563 5560 5557 5554 5550 5547 5545 5542 5540 5538
5648 5646 5643 5640 5637 5634 5631 5628 5625 5623 5621 5618 5615 5613 5610 5607 5606 5604 5602 5600 5598 5595 5592 5589 5586 5583 5580 5577 5573 5569 5566 5562 5558 5554 5551 5547 5544 5540 5537 5534 5532 5530 5528
5640 5637 5634 5631 5629 5626 5623 5621 5618 5616 5613 5611 5608 5606 5603 5601 5598 5596 5594 5592 5590 5587 5584 5580 5577 5574 5570 5567 5563 5559 5556 5552 5549 5545 5542 5538 5533 5530 5527 5524 5521 5519 5517
5631 5629 5626 5623 5620 5617 5615 5613 5610 5607 5605 5604 5601 5598 5596 5593 5590 5588 5586 5583 5581 5577 5574 5571 5568 5565 5561 5558 5554 5550 5546 5542 5539 5535 5531 5528 5524 5521 5517 5514 5512 5509 5507